Content
SEND FEEDBACK

Daily
Averages
Monthly
Summary
Brazil

SANTA RITA, MARANHÃO


Home > South America > Brazil > Maranhão
Elevation: 60 meters     Latitude: 07 09S     Longitude: 034 57W

WEATHER
 
SELECT A DAY
Number of Records: 65,824;   Date Range: 8/27/96 - 11/27/14
 
SHARE

PRINT THIS DATA

[ ← Previous Day ]
WEATHER ALMANAC - 31 JANUARY, 2013
[ Next Day → ]
[ °F ]   °C
Weather ElementAverageHighLow
Temperature27.9 °C32 °C (11:00 am)24 °C (5:00 am)
Dewpoint20.3 °C21 °C (1:00 am)19 °C (10:00 am)
Humidity64.3 %83 % (6:00 am)46 % (11:00 am)
Barometer1012.5 hPa1014.2 hPa (8:00 am)1011.2 hPa (2:00 pm)
Wind Speed11.9 km/h24.1 km/h (2:00 pm)
Weather ElementAverage
Visibility10 km
Wind DirectionE (85.7 °)

Weather ElementTotal
Precipitation---
Cooling Degree Days9.7 (Base 18.3)
Growing Degree Days18 (Base 10)
Averaged from 23 records on 31 January, 2013
WEATHER CONDITIONS BREAKOUT
WIND DIRECTION BREAKOUT
WEATHER BY HOUR - 31 JANUARY, 2013
[ °F ]   °C
Local TimeTemperatureDewpointHumidityBarometerVisibilityWind DirectionWind SpeedGust SpeedPrecipitationEventsConditions
1:00 AM26 °C21 °C74 %1013.2 hPa10 kmESE (110°)7.4 km/hPartly Cloudy
2:00 AM26 °C21 °C74 %1012.2 hPa10 kmESE (110°)9.3 km/hPartly Cloudy
3:00 AM25 °C20 °C74 %1012.2 hPaCalmClear
4:00 AM25 °C20 °C74 %1012.2 hPaCalmClear
5:00 AM24 °C20 °C78 %1013.2 hPaCalmClear
6:00 AM24 °C21 °C83 %1013.2 hPa10 kmCalmPartly Cloudy
7:00 AM27 °C21 °C70 %1013.2 hPa10 kmSE (140°)5.6 km/hMostly Cloudy
8:00 AM29 °C20 °C58 %1014.2 hPa10 kmEast (100°)14.8 km/hMostly Cloudy
9:00 AM29 °C20 °C58 %1014.2 hPa10 kmEast (100°)16.7 km/hMostly Cloudy
10:00 AM30 °C19 °C51 %1014.2 hPa10 kmEast (90°)18.5 km/hMostly Cloudy
11:00 AM32 °C19 °C46 %1013.2 hPa10 kmEast (100°)18.5 km/hMostly Cloudy
12:00 PM32 °C19 °C46 %1013.2 hPa10 kmESE (110°)16.7 km/hMostly Cloudy
1:00 PM31 °C19 °C49 %1012.2 hPa10 kmESE (110°)20.4 km/hMostly Cloudy
2:00 PM31 °C21 °C55 %1011.2 hPa10 kmESE (120°)24.1 km/hMostly Cloudy
3:00 PM30 °C20 °C55 %1011.2 hPa10 kmESE (110°)22.2 km/hMostly Cloudy
4:00 PM31 °C20 °C52 %1011.2 hPa10 kmESE (120°)20.4 km/hScattered Clouds
5:00 PM29 °C21 °C62 %1011.2 hPa10 kmESE (110°)20.4 km/hScattered Clouds
6:00 PM28 °C21 °C66 %1011.2 hPa10 kmCalmScattered Clouds
7:00 PM27 °C21 °C70 %1012.2 hPa10 kmESE (110°)14.8 km/hPartly Cloudy
8:00 PM27 °C21 °C70 %1012.2 hPa10 kmESE (110°)16.7 km/hPartly Cloudy
9:00 PM27 °C21 °C70 %1013.2 hPa10 kmESE (110°)11.1 km/hScattered Clouds
10:00 PM26 °C21 °C74 %1013.2 hPa10 kmESE (110°)9.3 km/hScattered Clouds
11:00 PM26 °C20 °C69 %1013.2 hPa10 kmEast (100°)7.4 km/hScattered Clouds
Hourly data recorded from SBJP, located 0 kilometers away from Santa Rita, Maranhão







STORIES FROM OUR PARTNERS